Change the Weather History Date:

Sunday, May 26, 2013

  Actual Average (KPNC) Record (KPNC)
Temperature  
Mean Temperature 74 °F -  
Max Temperature 82 °F 86 °F 96 °F (1953)
Min Temperature 66 °F 59 °F 46 °F (2001)
Cooling Degree Days 9    
Growing Degree Days 24 (Base 50)    
Moisture  
Dew Point 73 °F    
Average Humidity 100    
Maximum Humidity 100    
Minimum Humidity 100    
Precipitation  
Precipitation 0.00 in - - ()
Sea Level Pressure  
Sea Level Pressure 29.95 in    
Wind  
Wind Speed 13 mph (SSE)    
Max Wind Speed 22 mph    
Max Gust Speed 30 mph    
Visibility 10 miles    
Events      
Averages and records for this station are not official NWS values.
T = Trace of Precipitation, MM = Missing Value Source: NWS Daily Summary

Daily Weather History Graph

Daily Weather History Graph

Search for Another Location

Airport or City:

Trip Planner

Search our weather history database for the weather conditions in past years. The results will help you decide how hot, cold, wet, or windy it might be!

Date:

Astronomy

May. 26, 2013 Rise Set
Actual Time 6:14 AM CDT 8:38 PM CDT
Civil Twilight 5:44 AM CDT 9:08 PM CDT
Nautical Twilight 5:08 AM CDT 9:45 PM CDT
Astronomical Twilight 4:27 AM CDT 10:25 PM CDT
Moon 10:28 PM CDT (5/26) 7:44 AM CDT (5/26)
Length of Visible Light 15h 23m
Length of Day
14h 24m
Waning Gibbous, 96% of the Moon is Illuminated
May 26
Waning Gibbous
May 31
Last Quarter
Jun 8
New
Jun 16
First Quarter
Jun 23
Full

Hourly Weather History & Observations

Time (CDT) Temp. Heat Index Dew Point Humidity Pressure Visibility Wind Dir Wind Speed Gust Speed Precip Events Conditions
12:15 AM 68.0 °F - 68.0 °F 100% 30.00 in 10.0 mi SSE 13.8 mph 19.6 mph N/A   Mostly Cloudy
12:35 AM 68.0 °F - 68.0 °F 100% 30.01 in 10.0 mi SSE 11.5 mph 19.6 mph N/A   Partly Cloudy
12:55 AM 66.2 °F - 66.2 °F 100% 30.01 in 10.0 mi SSE 10.4 mph 17.3 mph N/A   Clear
1:15 AM 66.2 °F - 66.2 °F 100% 30.02 in 10.0 mi SSE 11.5 mph 17.3 mph N/A   Clear
1:35 AM 66.2 °F - 66.2 °F 100% 30.01 in 10.0 mi SSE 10.4 mph - N/A   Clear
1:55 AM 66.2 °F - 66.2 °F 100% 30.01 in 10.0 mi SSE 12.7 mph 18.4 mph N/A   Clear
2:15 AM 66.2 °F - 66.2 °F 100% 30.00 in 10.0 mi SSE 10.4 mph - N/A   Clear
2:35 AM 66.2 °F - 66.2 °F 100% 29.99 in 10.0 mi SSE 12.7 mph 17.3 mph N/A   Clear
2:55 AM 66.2 °F - 66.2 °F 100% 29.98 in 10.0 mi SSE 11.5 mph 16.1 mph N/A   Clear
3:15 AM 66.2 °F - 66.2 °F 100% 29.98 in 10.0 mi SSE 11.5 mph - N/A   Clear
3:35 AM 66.2 °F - 66.2 °F 100% 29.98 in 10.0 mi SSE 13.8 mph - N/A   Clear
3:55 AM 66.2 °F - 66.2 °F 100% 29.98 in 10.0 mi SSE 13.8 mph 17.3 mph N/A   Clear
4:15 AM 66.2 °F - 66.2 °F 100% 29.98 in 10.0 mi SSE 11.5 mph 16.1 mph N/A   Clear
4:35 AM 66.2 °F - 66.2 °F 100% 29.98 in 10.0 mi SSE 12.7 mph - N/A   Clear
4:55 AM 66.2 °F - 66.2 °F 100% 29.97 in 10.0 mi SSE 11.5 mph - N/A   Clear
5:15 AM 66.2 °F - 66.2 °F 100% 29.97 in 10.0 mi SSE 11.5 mph 17.3 mph N/A   Clear
5:35 AM 66.2 °F - 66.2 °F 100% 29.98 in 10.0 mi SSE 11.5 mph - N/A   Mostly Cloudy
5:55 AM 66.2 °F - 66.2 °F 100% 29.98 in 10.0 mi SSE 9.2 mph - N/A   Overcast
6:15 AM 66.2 °F - 66.2 °F 100% 29.98 in 9.0 mi SE 8.1 mph - N/A   Overcast
6:35 AM 66.2 °F - 66.2 °F 100% 29.98 in 9.0 mi SSE 9.2 mph - N/A   Overcast
6:55 AM 66.2 °F - 66.2 °F 100% 29.99 in 7.0 mi South 9.2 mph - N/A   Mostly Cloudy
7:15 AM 66.2 °F - 66.2 °F 100% 29.99 in 7.0 mi SSE 6.9 mph - N/A   Mostly Cloudy
7:35 AM 66.2 °F - 66.2 °F 100% 29.99 in 8.0 mi SSE 6.9 mph - N/A   Overcast
7:55 AM 68.0 °F - 68.0 °F 100% 29.99 in 9.0 mi SSE 11.5 mph - N/A   Mostly Cloudy
8:15 AM 68.0 °F - 68.0 °F 100% 29.99 in 10.0 mi SSE 11.5 mph 18.4 mph N/A   Overcast
8:35 AM 68.0 °F - 68.0 °F 100% 29.99 in 10.0 mi South 10.4 mph - N/A   Overcast
8:55 AM 69.8 °F - 69.8 °F 100% 30.00 in 10.0 mi South 12.7 mph 17.3 mph N/A   Overcast
9:15 AM 69.8 °F - 69.8 °F 100% 30.00 in 10.0 mi South 11.5 mph 19.6 mph N/A   Overcast
9:35 AM 71.6 °F - 71.6 °F 100% 29.99 in 10.0 mi SSE 13.8 mph 20.7 mph N/A   Overcast
9:55 AM 73.4 °F - 73.4 °F 100% 29.99 in 10.0 mi South 17.3 mph 21.9 mph N/A   Overcast
10:15 AM 71.6 °F - 71.6 °F 100% 29.98 in 10.0 mi South 18.4 mph 23.0 mph N/A   Overcast
10:35 AM 73.4 °F - 73.4 °F 100% 29.99 in 10.0 mi South 13.8 mph 23.0 mph N/A   Overcast
10:55 AM 73.4 °F - 73.4 °F 100% 29.98 in 10.0 mi South 15.0 mph 20.7 mph N/A   Overcast
11:15 AM 73.4 °F - 73.4 °F 100% 29.99 in 10.0 mi South 17.3 mph 24.2 mph N/A   Overcast
11:35 AM 73.4 °F - 73.4 °F 100% 29.98 in 10.0 mi South 13.8 mph 19.6 mph N/A   Overcast
11:55 AM 73.4 °F - 73.4 °F 100% 29.98 in 10.0 mi South 12.7 mph 23.0 mph N/A   Overcast
12:15 PM 75.2 °F - 75.2 °F 100% 29.97 in 10.0 mi SSE 16.1 mph 20.7 mph N/A   Overcast
12:35 PM 75.2 °F - 75.2 °F 100% 29.97 in 10.0 mi South 18.4 mph 29.9 mph N/A   Overcast
12:55 PM 75.2 °F - 75.2 °F 100% 29.96 in 10.0 mi SSE 18.4 mph 21.9 mph N/A   Overcast
1:15 PM 77.0 °F - 77.0 °F 100% 29.95 in 10.0 mi South 17.3 mph 25.3 mph N/A   Overcast
1:35 PM 77.0 °F - 77.0 °F 100% 29.96 in 10.0 mi South 15.0 mph 24.2 mph N/A   Overcast
1:55 PM 77.0 °F - 77.0 °F 100% 29.96 in 10.0 mi South 17.3 mph 26.5 mph N/A   Overcast
2:15 PM 77.0 °F - 77.0 °F 100% 29.95 in 10.0 mi South 18.4 mph 25.3 mph N/A   Overcast
2:35 PM 78.8 °F - 78.8 °F 100% 29.94 in 10.0 mi SSE 17.3 mph 28.8 mph N/A   Overcast
2:55 PM 78.8 °F - 78.8 °F 100% 29.93 in 10.0 mi South 19.6 mph 28.8 mph N/A   Overcast
3:15 PM 80.6 °F 89.3 °F 80.6 °F 100% 29.92 in 10.0 mi SSE 19.6 mph 29.9 mph N/A   Mostly Cloudy
3:35 PM 80.6 °F 89.3 °F 80.6 °F 100% 29.92 in 10.0 mi SSE 18.4 mph 27.6 mph N/A   Mostly Cloudy
3:55 PM 80.6 °F 89.3 °F 80.6 °F 100% 29.91 in 10.0 mi SSE 21.9 mph 27.6 mph N/A   Mostly Cloudy
4:15 PM 80.6 °F 89.3 °F 80.6 °F 100% 29.90 in 10.0 mi SSE 20.7 mph 28.8 mph N/A   Mostly Cloudy
4:35 PM 80.6 °F 89.3 °F 80.6 °F 100% 29.89 in 10.0 mi SSE 21.9 mph 28.8 mph N/A   Scattered Clouds
4:55 PM 82.4 °F 96.1 °F 82.4 °F 100% 29.89 in 10.0 mi South 18.4 mph 26.5 mph N/A   Scattered Clouds
5:15 PM 80.6 °F 89.3 °F 80.6 °F 100% 29.89 in 10.0 mi South 20.7 mph 27.6 mph N/A   Scattered Clouds
5:35 PM 82.4 °F 96.1 °F 82.4 °F 100% 29.88 in 10.0 mi SSE 20.7 mph 27.6 mph N/A   Scattered Clouds
5:55 PM 82.4 °F 96.1 °F 82.4 °F 100% 29.88 in 10.0 mi SSE 17.3 mph 23.0 mph N/A   Mostly Cloudy
6:15 PM 82.4 °F 96.1 °F 82.4 °F 100% 29.88 in 10.0 mi South 16.1 mph 23.0 mph N/A   Mostly Cloudy
6:35 PM 80.6 °F 89.3 °F 80.6 °F 100% 29.87 in 10.0 mi South 17.3 mph 26.5 mph N/A   Mostly Cloudy
6:55 PM 80.6 °F 89.3 °F 80.6 °F 100% 29.87 in 10.0 mi SSE 12.7 mph 20.7 mph N/A   Mostly Cloudy
7:15 PM 80.6 °F 89.3 °F 80.6 °F 100% 29.87 in 10.0 mi South 11.5 mph 21.9 mph N/A   Mostly Cloudy
7:35 PM 78.8 °F - 78.8 °F 100% 29.87 in 10.0 mi SSE 13.8 mph - N/A   Scattered Clouds
7:55 PM 77.0 °F - 77.0 °F 100% 29.87 in 10.0 mi SSE 11.5 mph 17.3 mph N/A   Clear
8:15 PM 75.2 °F - 75.2 °F 100% 29.88 in 10.0 mi SSE 9.2 mph - N/A   Clear
8:35 PM 75.2 °F - 75.2 °F 100% 29.88 in 10.0 mi SSE 8.1 mph - N/A   Clear
8:55 PM 75.2 °F - 75.2 °F 100% 29.88 in 10.0 mi SSE 9.2 mph - N/A   Clear
9:15 PM 73.4 °F - 73.4 °F 100% 29.88 in 10.0 mi SE 9.2 mph - N/A   Clear
9:35 PM 73.4 °F - 73.4 °F 100% 29.88 in 10.0 mi SE 11.5 mph - N/A   Clear
9:55 PM 73.4 °F - 73.4 °F 100% 29.88 in 10.0 mi SE 13.8 mph 18.4 mph N/A   Partly Cloudy
10:15 PM 73.4 °F - 73.4 °F 100% 29.88 in 10.0 mi SE 13.8 mph 21.9 mph N/A   Partly Cloudy
10:35 PM 73.4 °F - 73.4 °F 100% 29.88 in 10.0 mi SE 18.4 mph 24.2 mph N/A   Clear
10:55 PM 73.4 °F - 73.4 °F 100% 29.88 in 10.0 mi SSE 16.1 mph 25.3 mph N/A   Clear
11:15 PM 73.4 °F - 73.4 °F 100% 29.88 in 10.0 mi SE 16.1 mph 23.0 mph N/A   Partly Cloudy
11:35 PM 71.6 °F - 71.6 °F 100% 29.88 in 10.0 mi SE 17.3 mph 20.7 mph N/A   Partly Cloudy
11:55 PM 71.6 °F - 71.6 °F 100% 29.88 in 10.0 mi SSE 15.0 mph 24.2 mph N/A   Partly Cloudy